User: anonymous   Login
Location: Unspecified
(0.0000°N, 0.0000°E)
Time: 01:32:53
(UTC+01:00)
Language:

SJ-6B - Orbit

View from above orbital plane
View from above orbital plane
View from above satellite
View from above satellite

Ground track
Ground track

The orbit data is extracted from the following two-line orbital elements,

1 28415U 04035C   15058.14073730  .00002391  00000-0  17212-3 0  9997
2 28415 097.7994 069.5368 0057168 090.3926 270.3850 15.03902256572046
Epoch (UTC): 27 February 2015 03:22:39
Eccentricity: 0.0057168
inclination: 97.7994°
perigee height: 515 km
apogee height: 594 km
right ascension of ascending node: 69.5368°
argument of perigee: 90.3926°
revolutions per day: 15.03902256
mean anomaly at epoch: 270.3850°
orbit number at epoch: 57204

The dashed part of the orbit path shows where the satellite is in the earth's shadow,  

DLR